Погода в Коламбусе

США     32°28′13″N   84°59′35″W
темп.,
°C
ветер,
м/с
пор.,
м/с
влажн.,
%
обл.,
%
осадки,
мм/ч
давл.,
гПа
погр.,
м
15 мая, сб
сб1523:00+15юв12630 0.0 102426
02:00+13в11700 0.0 102310
05:00+12св11710 0.0 102410
08:00+14ссв11650 0.0 102766
11:00+22юв12410 0.0 1026828
14:00+25юв22310 0.0 10242279
17:00+26юв22308 0.0 10222513
20:00+21юв24540 0.0 102296
16 мая, вс
вс1623:00+16ююв11580 0.0 102315
02:00+15вюв115985 0.0 102314
05:00+13ююв116698 0.0 102315
08:00+15вюв1163100 0.0 102575
11:00+22ююв244020 0.0 1025754
14:00+26ю22305 0.0 10232019
17:00+27ююв223087 0.0 10212227
20:00+22ююв245443 0.0 1021102
17 мая, пн
пн1723:00+18вюв225812 0.0 102230
02:00+16вюв24635 0.0 102177
05:00+15ююв14716 0.0 1021101
08:00+16юв27695 0.0 1023218
11:00+24ююв3446100 0.0 1023906
14:00+27ююв3433100 0.0 10211957
17:00+28ююв343598 0.0 10192198
20:00+23вюв245579 0.0 102092
18 мая, вт
вт1823:00+20в236070 0.0 102159
02:00+19в310658 0.0 1021283
05:00+17вюв267592 0.0 1021144
08:00+18вюв287752 0.0 1023264
11:00+25юв474853 0.0 10231353
14:00+29вюв563764 0.0 10222539
17:00+26в4848100 0.0 1020818
20:00+24в495997 0.0 1021538
19 мая, ср
ср1923:00+21в311687 0.0 1022477
02:00+20вюв311714 0.0 1022547
05:00+18вюв3118631 0.0 1022487
08:00+18в311845 0.0 1025476
11:00+25вюв58525 0.0 10241457
14:00+29вюв573949 0.0 10232434
17:00+26юв584913 0.0 10221041
20:00+25в375276 0.0 1022586